Location: Castillon
(43.1358°N, 0.8654°E)
Time: 19:59:10
(UTC+00:00)

SMAP - Pass Details

Date: 24 January 2021
Orbit: 681 x 683 km, 98.1° (Epoch: 28 February)

Event Time Altitude Azimuth Distance (km) Brightness Sun altitude
Rises 17:22:45 0° 168° (SSE) 3,030 6.5 -4.9°
Reaches altitude 10° 17:24:58 10° 169° (S) 2,119 5.7 -5.3°
Maximum altitude 17:29:37 81° 257° (WSW) 696 3.2 -6.1°
Drops below altitude 10° 17:34:18 10° 345° (NNW) 2,135 5.6 -6.9°
Sets 17:36:33 0° 346° (NNW) 3,055 6.4 -7.3°
